Simultaneous Nadir Overpasses (SNOs) Predictions

Prediction of SNOs between GOES-17 and AQUA Satellite Orbit:

Table of predicted SNOs for the next 14.0 days since TLE Epoch: 7/15/2023
Index Date Time (GOES-17) GOES-17 Lat,Lon AQUA Lat,Lon Distance(km) Time Diff (sec)
1 07/15/2023 08:46:57 0.01,-104.73 -0.04,-104.35 43.25 80
2 07/17/2023 08:32:43 0.01,-104.73 -0.79,-100.88 437.70 80
3 07/17/2023 20:53:36 -0.01,-104.71 -0.27,-105.94 139.36 80
4 07/19/2023 20:42:01 -0.01,-104.71 0.46,-102.46 255.85 80
5 07/20/2023 09:02:44 0.01,-104.73 0.62,-107.47 312.57 80
6 07/22/2023 08:45:49 0.01,-104.73 -0.14,-104.00 83.12 80
7 07/22/2023 21:06:40 -0.01,-104.71 -0.95,-109.05 494.21 80
8 07/24/2023 08:31:33 0.01,-104.73 -0.88,-100.52 479.18 80
9 07/24/2023 20:52:24 -0.01,-104.71 -0.20,-105.57 97.95 80
10 07/26/2023 20:40:48 -0.01,-104.71 0.57,-102.10 298.36 80
11 07/27/2023 09:01:31 0.01,-104.74 0.49,-107.11 269.51 80
